KSEG

Details ICAO KSEG
Name PENN VALLEY
Region United States
Timezone America/New_York (UTC-4.0)
Plans Departing 1
Arriving 12
Stats Elevation 450 ft / 137 m (AMSL)
Location 40.820521° -76.863788°
Runways 1
Magnetic Variation 11.356° W
Sunrise 2018-05-25 09:43:29 UTC / 2018-05-25 05:43:29 Local
Sunset 2018-05-26 00:28:13 UTC / 2018-05-25 20:28:13 Local
Advertisement - Login to hide

Runways

ID Width Length Bearing (true) Bearing (mag) Surface Threshold Offset Overrun Length
17 75 ft / 23 m 3,804 ft / 1,159 m 158.86° 170.22° Asphalt 0 ft / 0 m 0 ft / 0 m
35 75 ft / 23 m 3,804 ft / 1,159 m 338.87° 350.23° Asphalt 0 ft / 0 m 0 ft / 0 m

Map

Weather


0- 5 10 15 20 25 30 35+ Temperature / ° C

Clouds and Precipitation
Forecast for 2018-05-26 00:00 UTC. Updated an hour ago

Ground ~20,000 ft ~40,000 ft Winds

METAR

KSEG 252353Z AUTO 20004KT 10SM CLR 26/18 A2985 RMK AO2 SLP104 T02610178 10300 20261 56009

TAF

Not found

Frequencies

Recorded 119.27 MHz ASOS
Approach 118.25 MHz HARRISBURG APP/DEP
Unicom 122.70 MHz CTAF/UNICOM
Warning: Do not use this data for real-world aviation or navigation. No guarantee of current accuracy is given.